When you browse on this site, cookies collect data to enhance your experience and personalize the content and advertising you see.
Visit our Privacy Policy to learn more. By continuing to use the site, you agree to this use of cookies and data.
  • In United Kingdom
  • List of Countries
  • For 7 days
  • Water Temperature
  • Weather Map
  • Weather Widgets
  • user-avatar
    Login

    Hourly Weather Leicester

    Today, 21 November, Thursday

    Time Temperature Precipitation Wind Pressure Humidity
    00:00 0°C° 0 mm 4 mps 750 mmHg 91%
    01:00 0°C° 0 mm 4 mps 749 mmHg 91%
    02:00 0°C° 0 mm 4 mps 749 mmHg 92%
    03:00 0°C° 0 mm 4 mps 749 mmHg 93%
    04:00 0°C° 0 mm 4 mps 748 mmHg 93%
    05:00 0°C° 0 mm 4 mps 748 mmHg 94%
    06:00 0°C° 0 mm 3 mps 748 mmHg 94%
    07:00 0°C° 0 mm 4 mps 748 mmHg 93%
    08:00 0°C° 0 mm 4 mps 748 mmHg 92%
    09:00 0°C° 0 mm 5 mps 747 mmHg 91%
    10:00 +1°C° 0 mm 5 mps 747 mmHg 89%
    11:00 +2°C° 0 mm 5 mps 747 mmHg 87%
    12:00 +3°C° 0 mm 5 mps 746 mmHg 84%
    13:00 +3°C° 0 mm 5 mps 746 mmHg 85%
    14:00 +3°C° 0 mm 5 mps 745 mmHg 86%
    15:00 +3°C° 0 mm 5 mps 745 mmHg 86%
    16:00 +3°C° 0 mm 5 mps 745 mmHg 88%
    17:00 +4°C° 0 mm 4 mps 744 mmHg 89%
    18:00 +4°C° 0 mm 4 mps 744 mmHg 90%
    19:00 +4°C° 0 mm 4 mps 744 mmHg 90%
    20:00 +3°C° 0 mm 5 mps 743 mmHg 91%
    21:00 +3°C° 0 mm 5 mps 743 mmHg 92%
    22:00 +3°C° 0 mm 5 mps 743 mmHg 92%
    23:00 +3°C° 0 mm 5 mps 742 mmHg 93%

    Tomorrow, 22 November, Friday

    Time Temperature Precipitation Wind Pressure Humidity
    00:00 +3°C° 0 mm 5 mps 742 mmHg 93%
    01:00 +5°C° 0.5 mm 5 mps 742 mmHg 94%
    02:00 +5°C° 0.5 mm 4 mps 741 mmHg 95%
    03:00 +5°C° 0.5 mm 4 mps 740 mmHg 95%
    04:00 +5°C° 0.1 mm 4 mps 740 mmHg 95%
    05:00 +5°C° 0.1 mm 4 mps 740 mmHg 95%
    06:00 +5°C° 0.1 mm 4 mps 740 mmHg 94%
    07:00 +5°C° 0 mm 5 mps 740 mmHg 94%
    08:00 +5°C° 0 mm 5 mps 740 mmHg 93%
    09:00 +5°C° 0 mm 5 mps 740 mmHg 93%
    10:00 +6°C° 0.1 mm 5 mps 740 mmHg 89%
    11:00 +7°C° 0.1 mm 5 mps 740 mmHg 85%
    12:00 +8°C° 0.1 mm 5 mps 741 mmHg 81%
    13:00 +8°C° 0.1 mm 5 mps 741 mmHg 82%
    14:00 +7°C° 0.1 mm 4 mps 740 mmHg 84%
    15:00 +7°C° 0.1 mm 4 mps 740 mmHg 85%
    16:00 +7°C° 0.3 mm 4 mps 741 mmHg 86%
    17:00 +7°C° 0.3 mm 5 mps 741 mmHg 87%
    18:00 +6°C° 0.3 mm 5 mps 741 mmHg 88%
    19:00 +6°C° 0 mm 5 mps 741 mmHg 88%
    20:00 +6°C° 0 mm 5 mps 741 mmHg 88%
    21:00 +6°C° 0 mm 5 mps 741 mmHg 88%
    22:00 +6°C° 0 mm 5 mps 741 mmHg 89%
    23:00 +5°C° 0 mm 6 mps 741 mmHg 91%

    Day after tomorrow, 23 November, Saturday

    Time Temperature Precipitation Wind Pressure Humidity
    00:00 +5°C° 0 mm 6 mps 740 mmHg 92%
    01:00 +5°C° 0.1 mm 6 mps 740 mmHg 91%
    02:00 +7°C° 0.1 mm 6 mps 740 mmHg 90%
    03:00 +7°C° 0.1 mm 6 mps 740 mmHg 90%
    04:00 +7°C° 0.5 mm 6 mps 740 mmHg 90%
    05:00 +7°C° 0.5 mm 6 mps 739 mmHg 90%
    06:00 +6°C° 0.5 mm 7 mps 739 mmHg 90%
    07:00 +7°C° 0.7 mm 6 mps 739 mmHg 91%
    08:00 +7°C° 0.7 mm 6 mps 739 mmHg 91%
    09:00 +7°C° 0.7 mm 6 mps 739 mmHg 92%
    10:00 +7°C° 0.6 mm 6 mps 740 mmHg 93%
    11:00 +7°C° 0.6 mm 6 mps 740 mmHg 94%
    12:00 +7°C° 0.6 mm 6 mps 740 mmHg 94%
    13:00 +7°C° 0.7 mm 6 mps 739 mmHg 95%
    14:00 +8°C° 0.7 mm 6 mps 739 mmHg 95%
    15:00 +8°C° 0.7 mm 5 mps 739 mmHg 95%
    16:00 +8°C° 0.6 mm 6 mps 739 mmHg 93%
    17:00 +8°C° 0.6 mm 6 mps 739 mmHg 92%
    18:00 +8°C° 0.6 mm 6 mps 740 mmHg 91%
    19:00 +8°C° 0.1 mm 6 mps 740 mmHg 91%
    20:00 +8°C° 0.1 mm 6 mps 740 mmHg 90%
    21:00 +8°C° 0.1 mm 6 mps 740 mmHg 90%
    22:00 +8°C° 0.1 mm 5 mps 741 mmHg 92%
    23:00 +8°C° 0.1 mm 5 mps 741 mmHg 93%

    24 November, Sunday

    Time Temperature Precipitation Wind Pressure Humidity
    00:00 +8°C° 0.1 mm 4 mps 742 mmHg 95%
    01:00 +8°C° 0 mm 4 mps 742 mmHg 95%
    02:00 +8°C° 0 mm 4 mps 742 mmHg 96%
    03:00 +8°C° 0 mm 4 mps 743 mmHg 96%
    04:00 +7°C° 0 mm 4 mps 743 mmHg 95%
    05:00 +7°C° 0 mm 4 mps 744 mmHg 95%
    06:00 +7°C° 0 mm 4 mps 745 mmHg 94%
    07:00 +7°C° 0 mm 4 mps 745 mmHg 93%
    08:00 +6°C° 0 mm 4 mps 746 mmHg 91%
    09:00 +5°C° 0 mm 4 mps 746 mmHg 90%
    10:00 +6°C° 0 mm 4 mps 746 mmHg 87%
    11:00 +7°C° 0 mm 5 mps 747 mmHg 84%
    12:00 +8°C° 0 mm 5 mps 747 mmHg 80%
    13:00 +8°C° 0 mm 5 mps 747 mmHg 82%
    14:00 +8°C° 0 mm 4 mps 747 mmHg 83%
    15:00 +8°C° 0 mm 4 mps 748 mmHg 84%
    16:00 +7°C° 0 mm 4 mps 748 mmHg 86%
    17:00 +7°C° 0 mm 5 mps 747 mmHg 87%
    18:00 +6°C° 0 mm 5 mps 747 mmHg 88%
    19:00 +6°C° 0 mm 5 mps 747 mmHg 88%
    20:00 +5°C° 0 mm 6 mps 747 mmHg 89%
    21:00 +5°C° 0 mm 6 mps 747 mmHg 89%
    22:00 +6°C° 0.3 mm 7 mps 746 mmHg 89%
    23:00 +6°C° 0.3 mm 7 mps 746 mmHg 90%

    25 November, Monday

    Time Temperature Precipitation Wind Pressure Humidity
    00:00 +7°C° 0.3 mm 8 mps 745 mmHg 90%
    01:00 +7°C° 0.3 mm 8 mps 744 mmHg 90%
    02:00 +7°C° 0.3 mm 8 mps 744 mmHg 90%
    03:00 +7°C° 0.3 mm 8 mps 743 mmHg 90%
    04:00 +9°C° 0.5 mm 8 mps 742 mmHg 91%
    05:00 +9°C° 0.5 mm 8 mps 741 mmHg 92%
    06:00 +10°C° 0.5 mm 8 mps 740 mmHg 93%
    07:00 +10°C° 1.2 mm 8 mps 740 mmHg 93%
    08:00 +10°C° 1.2 mm 8 mps 739 mmHg 92%
    09:00 +10°C° 1.2 mm 8 mps 738 mmHg 92%
    10:00 +10°C° 0.4 mm 8 mps 738 mmHg 88%
    11:00 +10°C° 0.4 mm 8 mps 738 mmHg 85%
    12:00 +11°C° 0.4 mm 7 mps 738 mmHg 81%
    13:00 +10°C° 0 mm 7 mps 738 mmHg 81%
    14:00 +10°C° 0 mm 6 mps 739 mmHg 81%
    15:00 +10°C° 0 mm 6 mps 739 mmHg 81%
    16:00 +10°C° 0 mm 5 mps 739 mmHg 83%
    17:00 +9°C° 0 mm 5 mps 740 mmHg 86%
    18:00 +8°C° 0 mm 5 mps 740 mmHg 88%
    19:00 +8°C° 0 mm 5 mps 741 mmHg 88%
    20:00 +8°C° 0 mm 5 mps 742 mmHg 88%
    21:00 +9°C° 0 mm 5 mps 742 mmHg 88%
    22:00 +8°C° 0 mm 5 mps 743 mmHg 87%
    23:00 +8°C° 0 mm 5 mps 743 mmHg 86%

    26 November, Tuesday

    Time Temperature Precipitation Wind Pressure Humidity
    00:00 +7°C° 0 mm 5 mps 744 mmHg 86%
    01:00 +7°C° 0 mm 5 mps 744 mmHg 85%
    02:00 +7°C° 0 mm 5 mps 745 mmHg 83%
    03:00 +7°C° 0 mm 5 mps 745 mmHg 82%
    04:00 +7°C° 0 mm 5 mps 746 mmHg 82%
    05:00 +7°C° 0 mm 5 mps 746 mmHg 81%
    06:00 +7°C° 0 mm 4 mps 746 mmHg 81%
    07:00 +7°C° 0 mm 4 mps 747 mmHg 82%
    08:00 +7°C° 0 mm 4 mps 747 mmHg 84%
    09:00 +7°C° 0 mm 5 mps 747 mmHg 85%
    10:00 +8°C° 0 mm 5 mps 747 mmHg 85%
    11:00 +8°C° 0 mm 5 mps 747 mmHg 85%
    12:00 +9°C° 0 mm 6 mps 747 mmHg 84%
    13:00 +9°C° 0 mm 5 mps 747 mmHg 84%
    14:00 +10°C° 0 mm 4 mps 746 mmHg 83%
    15:00 +8°C° 0 mm 4 mps 746 mmHg 83%
    16:00 +8°C° 0 mm 4 mps 745 mmHg 84%
    17:00 +8°C° 0 mm 5 mps 745 mmHg 86%
    18:00 +8°C° 0 mm 5 mps 744 mmHg 87%
    19:00 +8°C° 0.2 mm 5 mps 744 mmHg 89%
    20:00 +8°C° 0.2 mm 5 mps 743 mmHg 91%
    21:00 +8°C° 0.2 mm 5 mps 743 mmHg 93%
    22:00 +9°C° 0.5 mm 6 mps 742 mmHg 92%
    23:00 +9°C° 0.5 mm 6 mps 741 mmHg 92%
    Show more